Voltar ao catálogo

CYGFM07

AtivoMeteoVLEO
NORAD 41890·PAYLOAD·🇺🇸 United States

Lançado Dec 15, 2016 de Cape Canaveral Space Force Station

Loading…

Próximas Passagens (próximas 24 horas)

TLE

AtualizadoSource: Space-Track

Época: Sep 14, 2026, 14:24 UTC

1 41890U 16078G   26257.60022474  .00029818  00000-0  29344-3 0  9994
2 41890  34.9448 352.2232 0004489 337.7338  22.3194 15.64928653542993

Acompanhe CYGFM07 em tempo real com AllMySat

Download on the App Store